User: anonymous   Login
Location: Ottawa
(45.4170°N, 75.7000°W)
Time: 09:31:01
(UTC-04:00)
Language:

Aureole 3 Rocket - Orbit

View from above orbital plane
View from above orbital plane
View from above satellite
View from above satellite

Ground track
Ground track

The orbit data is extracted from the following two-line orbital elements,

1 12849U 81094B   16208.53512182  .00000317  00000-0  27900-4 0  9993
2 12849  82.4909  56.5947 0903798 210.4057 144.1603 13.49873820697982
Epoch (UTC): 26 July 2016 12:50:34
Eccentricity: 0.0903798
inclination: 82.4909°
perigee height: 399 km
apogee height: 1746 km
right ascension of ascending node: 56.5947°
argument of perigee: 210.4057°
revolutions per day: 13.49873820
mean anomaly at epoch: 144.1603°
orbit number at epoch: 69798

The dashed part of the orbit path shows where the satellite is in the earth's shadow,  

DLR